Flag for Denmark Weather past 2 weeks in Odense, Denmark

Now
73 °F

Scattered clouds.


Feels Like: 76 °F
Forecast: 66 / 77 °F
Wind: 12 mph from Southwest

Location: Odense / Beldringe

Current Time: Aug 1, 2014 at 10:52:59 AM

Latest Report: Aug 1, 2014 at 10:20 AM


Visibility: N/A

Pressure: 29.92 "Hg

Humidity: 61%

Dew point: 59 °F

Location of OdenseLocation

Historic Weather in Odense — Graph

°F

Odense temperature yesterday

Maximum temperature yesterday: 75 °F (at 1:50 PM)
Minimum temperature yesterday: 64 °F (at 7:50 AM)
Average temperature yesterday: 70 °F

Past Weeks' High & Low Weather Summary

 TemperatureHumidityPressure
High82 °F (Jul 29, 4:50 PM)100% (Jul 18, 7:20 AM)30.21 "Hg (Jul 18, 7:20 AM)
Low61 °F (Jul 18, 7:20 AM)37% (Jul 19, 6:20 PM)29.77 "Hg (Jul 30, 2:50 PM)
Average73 °F66%30.01 "Hg
* Reported Jul 17 9:50 AM — Aug 1 9:50 AM, Odense, Weather by CustomWeather, © 2014

Note: Actual official high and low records may vary slightly from our data, if they occured in-between our weather recording intervals... More about our weather records

Advertising

Odense weather history for previous 24 hours

 ConditionsComfort  
Time TempWeatherWind HumidityBarometerVisibility
9:50 AM
Aug 1
73 °FPartly sunny.12 mph61%29.92 "HgN/A
9:20 AM72 °FPartly sunny.6 mph73%29.92 "HgN/A
8:50 AM70 °FPartly sunny.8 mph78%29.92 "HgN/A
8:20 AM68 °FPassing clouds.5 mph83%29.92 "HgN/A
7:50 AM66 °FClear.1 mph94%29.89 "Hg6 mi
7:20 AM64 °FClear.No wind94%29.89 "Hg6 mi
8:50 PM
Jul 31
68 °FScattered clouds.8 mph64%29.89 "HgN/A
7:50 PM70 °FPassing clouds.14 mph57%29.89 "HgN/A
6:50 PM73 °FPassing clouds.14 mph50%29.89 "HgN/A
5:50 PM73 °FPassing clouds.16 mph47%29.89 "HgN/A
4:50 PM75 °FPassing clouds.18 mph41%29.89 "HgN/A
3:50 PM75 °FPassing clouds.16 mph41%29.89 "HgN/A
2:50 PM73 °FScattered clouds.17 mph44%29.89 "HgN/A
1:50 PM75 °FScattered clouds.14 mph47%29.86 "HgN/A
12:50 PM72 °FScattered showers. Scattered clouds.17 mph57%29.89 "HgN/A
11:50 AM64 °FScattered showers. Scattered clouds.9 mph78%29.89 "HgN/A
11:20 AM68 °FSprinkles. Scattered clouds.22 mph69%29.89 "HgN/A
10:50 AM72 °FPassing clouds.14 mph53%29.89 "HgN/A
Weather by CustomWeather, © 2014

See weather overviewHow to use our weather pages